owner,sensor,date,latitude,longitude,vertical_datum,wind_speed,wind_to_direction,wind_speed_of_gust,qcFlag 
TCOON,ioos:station:TCOON:003:1,2019-05-01T00:00:00Z,26.8015,-97.4706,0.0,11.1,148.0,15.3,'11111222,11111222,11111222' 
TCOON,ioos:station:TCOON:003:1,2019-05-01T00:06:00Z,26.8015,-97.4706,0.0,11.9,148.0,14.8,'11111222,11111222,11111222' 
TCOON,ioos:station:TCOON:003:1,2019-05-01T00:12:00Z,26.8015,-97.4706,0.0,12.5,148.0,14.6,'11111222,11111222,11111222' 
TCOON,ioos:station:TCOON:003:1,2019-05-01T00:18:00Z,26.8015,-97.4706,0.0,11.9,146.0,15.1,'11111222,11111222,11111222' 
TCOON,ioos:station:TCOON:003:1,2019-05-01T00:24:00Z,26.8015,-97.4706,0.0,11.9,146.0,15.1,'11111222,11111222,11111222' 
TCOON,ioos:station:TCOON:003:1,2019-05-01T00:30:00Z,26.8015,-97.4706,0.0,13.5,149.0,15.2,'11111222,11111222,11111222' 
TCOON,ioos:station:TCOON:003:1,2019-05-01T00:36:00Z,26.8015,-97.4706,0.0,12.0,152.0,15.9,'11111222,11111222,11111222' 
TCOON,ioos:station:TCOON:003:1,2019-05-01T00:42:00Z,26.8015,-97.4706,0.0,12.6,149.0,14.4,'11111222,11111222,11111222' 
TCOON,ioos:station:TCOON:003:1,2019-05-01T00:48:00Z,26.8015,-97.4706,0.0,11.2,148.0,15.2,'11111222,11111222,11111222' 
TCOON,ioos:station:TCOON:003:1,2019-05-01T00:54:00Z,26.8015,-97.4706,0.0,11.9,144.0,14.7,'11111222,11111222,11111222' 
TCOON,ioos:station:TCOON:003:1,2019-05-01T01:00:00Z,26.8015,-97.4706,0.0,12.8,142.0,14.5,'11111222,11111222,11111222' 
TCOON,ioos:station:TCOON:003:1,2019-05-01T01:06:00Z,26.8015,-97.4706,0.0,12.3,140.0,15.2,'11111222,11111222,11111222' 
TCOON,ioos:station:TCOON:003:1,2019-05-01T01:12:00Z,26.8015,-97.4706,0.0,12.1,146.0,15.2,'11111222,11111222,11111222' 
TCOON,ioos:station:TCOON:003:1,2019-05-01T01:18:00Z,26.8015,-97.4706,0.0,12.0,146.0,14.5,'11111222,11111222,11111222' 
TCOON,ioos:station:TCOON:003:1,2019-05-01T01:24:00Z,26.8015,-97.4706,0.0,12.0,146.0,14.5,'11111222,11111222,11111222' 
TCOON,ioos:station:TCOON:003:1,2019-05-01T01:30:00Z,26.8015,-97.4706,0.0,12.0,148.0,14.2,'11111222,11111222,11111222' 
TCOON,ioos:station:TCOON:003:1,2019-05-01T01:36:00Z,26.8015,-97.4706,0.0,10.7,148.0,13.3,'11111222,11111222,11111222' 
TCOON,ioos:station:TCOON:003:1,2019-05-01T01:42:00Z,26.8015,-97.4706,0.0,11.1,148.0,13.6,'11111222,11111222,11111222' 
TCOON,ioos:station:TCOON:003:1,2019-05-01T01:48:00Z,26.8015,-97.4706,0.0,12.1,148.0,13.4,'11111222,11111222,11111222' 
TCOON,ioos:station:TCOON:003:1,2019-05-01T01:54:00Z,26.8015,-97.4706,0.0,12.1,150.0,13.9,'11111222,11111222,11111222' 
TCOON,ioos:station:TCOON:003:1,2019-05-01T02:00:00Z,26.8015,-97.4706,0.0,12.0,144.0,14.4,'11111222,11111222,11111222' 
TCOON,ioos:station:TCOON:003:1,2019-05-01T02:06:00Z,26.8015,-97.4706,0.0,10.6,148.0,13.4,'11111222,11111222,11111222' 
TCOON,ioos:station:TCOON:003:1,2019-05-01T02:12:00Z,26.8015,-97.4706,0.0,10.8,152.0,12.7,'11111222,11111222,11111222' 
TCOON,ioos:station:TCOON:003:1,2019-05-01T02:18:00Z,26.8015,-97.4706,0.0,12.6,147.0,14.4,'11111222,11111222,11111222' 
TCOON,ioos:station:TCOON:003:1,2019-05-01T02:24:00Z,26.8015,-97.4706,0.0,12.6,147.0,14.4,'11111222,11111222,11111222' 
TCOON,ioos:station:TCOON:003:1,2019-05-01T02:30:00Z,26.8015,-97.4706,0.0,12.2,146.0,14.0,'11111222,11111222,11111222' 
TCOON,ioos:station:TCOON:003:1,2019-05-01T02:36:00Z,26.8015,-97.4706,0.0,12.5,147.0,13.8,'11111222,11111222,11111222' 
TCOON,ioos:station:TCOON:003:1,2019-05-01T02:42:00Z,26.8015,-97.4706,0.0,12.7,146.0,14.3,'11111222,11111222,11111222' 
TCOON,ioos:station:TCOON:003:1,2019-05-01T02:48:00Z,26.8015,-97.4706,0.0,12.2,148.0,14.6,'11111222,11111222,11111222' 
TCOON,ioos:station:TCOON:003:1,2019-05-01T02:54:00Z,26.8015,-97.4706,0.0,11.8,148.0,14.5,'11111222,11111222,11111222' 
TCOON,ioos:station:TCOON:003:1,2019-05-01T03:00:00Z,26.8015,-97.4706,0.0,11.0,147.0,13.3,'11111222,11111222,11111222' 
TCOON,ioos:station:TCOON:003:1,2019-05-01T03:06:00Z,26.8015,-97.4706,0.0,11.2,148.0,13.8,'11111222,11111222,11111222' 
TCOON,ioos:station:TCOON:003:1,2019-05-01T03:12:00Z,26.8015,-97.4706,0.0,11.7,149.0,12.9,'11111222,11111222,11111222' 
TCOON,ioos:station:TCOON:003:1,2019-05-01T03:18:00Z,26.8015,-97.4706,0.0,11.8,146.0,14.0,'11111222,11111222,11111222' 
TCOON,ioos:station:TCOON:003:1,2019-05-01T03:24:00Z,26.8015,-97.4706,0.0,11.8,146.0,14.0,'11111222,11111222,11111222' 
TCOON,ioos:station:TCOON:003:1,2019-05-01T03:30:00Z,26.8015,-97.4706,0.0,10.7,147.0,14.1,'11111222,11111222,11111222' 
TCOON,ioos:station:TCOON:003:1,2019-05-01T03:36:00Z,26.8015,-97.4706,0.0,12.5,144.0,14.5,'11111222,11111222,11111222' 
TCOON,ioos:station:TCOON:003:1,2019-05-01T03:42:00Z,26.8015,-97.4706,0.0,12.0,145.0,14.3,'11111222,11111222,11111222' 
TCOON,ioos:station:TCOON:003:1,2019-05-01T03:48:00Z,26.8015,-97.4706,0.0,12.1,146.0,14.0,'11111222,11111222,11111222' 
TCOON,ioos:station:TCOON:003:1,2019-05-01T03:54:00Z,26.8015,-97.4706,0.0,11.4,148.0,13.1,'11111222,11111222,11111222' 
TCOON,ioos:station:TCOON:003:1,2019-05-01T04:00:00Z,26.8015,-97.4706,0.0,12.2,150.0,13.7,'11111222,11111222,11111222' 
TCOON,ioos:station:TCOON:003:1,2019-05-01T04:06:00Z,26.8015,-97.4706,0.0,11.7,147.0,13.2,'11111222,11111222,11111222' 
TCOON,ioos:station:TCOON:003:1,2019-05-01T04:12:00Z,26.8015,-97.4706,0.0,12.3,146.0,13.9,'11111222,11111222,11111222' 
TCOON,ioos:station:TCOON:003:1,2019-05-01T04:18:00Z,26.8015,-97.4706,0.0,11.1,144.0,12.8,'11111222,11111222,11111222' 
TCOON,ioos:station:TCOON:003:1,2019-05-01T04:24:00Z,26.8015,-97.4706,0.0,11.1,144.0,12.8,'11111222,11111222,11111222' 
TCOON,ioos:station:TCOON:003:1,2019-05-01T04:30:00Z,26.8015,-97.4706,0.0,11.6,150.0,13.4,'11111222,11111222,11111222' 
TCOON,ioos:station:TCOON:003:1,2019-05-01T04:36:00Z,26.8015,-97.4706,0.0,11.3,146.0,13.3,'11111222,11111222,11111222' 
TCOON,ioos:station:TCOON:003:1,2019-05-01T04:42:00Z,26.8015,-97.4706,0.0,12.1,146.0,13.8,'11111222,11111222,11111222' 
TCOON,ioos:station:TCOON:003:1,2019-05-01T04:48:00Z,26.8015,-97.4706,0.0,11.6,147.0,14.4,'11111222,11111222,11111222' 
TCOON,ioos:station:TCOON:003:1,2019-05-01T04:54:00Z,26.8015,-97.4706,0.0,12.2,146.0,13.8,'11111222,11111222,11111222' 
TCOON,ioos:station:TCOON:003:1,2019-05-01T05:00:00Z,26.8015,-97.4706,0.0,10.9,149.0,14.2,'11111222,11111222,11111222' 
TCOON,ioos:station:TCOON:003:1,2019-05-01T05:06:00Z,26.8015,-97.4706,0.0,11.7,150.0,14.1,'11111222,11111222,11111222' 
TCOON,ioos:station:TCOON:003:1,2019-05-01T05:12:00Z,26.8015,-97.4706,0.0,11.7,147.0,13.8,'11111222,11111222,11111222' 
TCOON,ioos:station:TCOON:003:1,2019-05-01T05:18:00Z,26.8015,-97.4706,0.0,12.4,148.0,14.6,'11111222,11111222,11111222' 
TCOON,ioos:station:TCOON:003:1,2019-05-01T05:24:00Z,26.8015,-97.4706,0.0,11.0,150.0,14.2,'11111222,11111222,11111222' 
TCOON,ioos:station:TCOON:003:1,2019-05-01T05:30:00Z,26.8015,-97.4706,0.0,11.9,145.0,13.9,'11111222,11111222,11111222' 
TCOON,ioos:station:TCOON:003:1,2019-05-01T05:36:00Z,26.8015,-97.4706,0.0,12.3,144.0,14.4,'11111222,11111222,11111222' 
TCOON,ioos:station:TCOON:003:1,2019-05-01T05:42:00Z,26.8015,-97.4706,0.0,12.0,145.0,13.9,'11111222,11111222,11111222' 
TCOON,ioos:station:TCOON:003:1,2019-05-01T05:48:00Z,26.8015,-97.4706,0.0,12.0,147.0,14.7,'11111222,11111222,11111222' 
TCOON,ioos:station:TCOON:003:1,2019-05-01T05:54:00Z,26.8015,-97.4706,0.0,12.0,147.0,14.7,'11111222,11111222,11111222' 
TCOON,ioos:station:TCOON:003:1,2019-05-01T06:00:00Z,26.8015,-97.4706,0.0,11.9,148.0,14.4,'11111222,11111222,11111222' 
TCOON,ioos:station:TCOON:003:1,2019-05-01T06:06:00Z,26.8015,-97.4706,0.0,10.9,144.0,13.4,'11111222,11111222,11111222' 
TCOON,ioos:station:TCOON:003:1,2019-05-01T06:12:00Z,26.8015,-97.4706,0.0,11.7,143.0,14.2,'11111222,11111222,11111222' 
TCOON,ioos:station:TCOON:003:1,2019-05-01T06:18:00Z,26.8015,-97.4706,0.0,11.7,147.0,14.2,'11111222,11111222,11111222' 
TCOON,ioos:station:TCOON:003:1,2019-05-01T06:24:00Z,26.8015,-97.4706,0.0,11.7,147.0,14.2,'11111222,11111222,11111222' 
TCOON,ioos:station:TCOON:003:1,2019-05-01T06:30:00Z,26.8015,-97.4706,0.0,10.8,145.0,14.2,'11111222,11111222,11111222' 
TCOON,ioos:station:TCOON:003:1,2019-05-01T06:36:00Z,26.8015,-97.4706,0.0,10.7,148.0,12.8,'11111222,11111222,11111222' 
TCOON,ioos:station:TCOON:003:1,2019-05-01T06:42:00Z,26.8015,-97.4706,0.0,9.6,145.0,12.3,'11111222,11111222,11111222' 
TCOON,ioos:station:TCOON:003:1,2019-05-01T06:48:00Z,26.8015,-97.4706,0.0,11.0,142.0,12.8,'11111222,11111222,11111222' 
TCOON,ioos:station:TCOON:003:1,2019-05-01T06:54:00Z,26.8015,-97.4706,0.0,10.4,141.0,12.1,'11111222,11111222,11111222' 
TCOON,ioos:station:TCOON:003:1,2019-05-01T07:00:00Z,26.8015,-97.4706,0.0,10.9,140.0,12.6,'11111222,11111222,11111222' 
TCOON,ioos:station:TCOON:003:1,2019-05-01T07:06:00Z,26.8015,-97.4706,0.0,10.9,138.0,13.8,'11111222,11111222,11111222' 
TCOON,ioos:station:TCOON:003:1,2019-05-01T07:12:00Z,26.8015,-97.4706,0.0,11.2,140.0,13.4,'11111222,11111222,11111222' 
TCOON,ioos:station:TCOON:003:1,2019-05-01T07:18:00Z,26.8015,-97.4706,0.0,11.6,142.0,13.5,'11111222,11111222,11111222' 
TCOON,ioos:station:TCOON:003:1,2019-05-01T07:24:00Z,26.8015,-97.4706,0.0,11.6,142.0,13.5,'11111222,11111222,11111222' 
TCOON,ioos:station:TCOON:003:1,2019-05-01T07:30:00Z,26.8015,-97.4706,0.0,11.2,141.0,13.7,'11111222,11111222,11111222' 
TCOON,ioos:station:TCOON:003:1,2019-05-01T07:36:00Z,26.8015,-97.4706,0.0,11.5,142.0,13.5,'11111222,11111222,11111222' 
TCOON,ioos:station:TCOON:003:1,2019-05-01T07:42:00Z,26.8015,-97.4706,0.0,11.5,142.0,13.3,'11111222,11111222,11111222' 
TCOON,ioos:station:TCOON:003:1,2019-05-01T07:48:00Z,26.8015,-97.4706,0.0,11.2,143.0,12.8,'11111222,11111222,11111222' 
TCOON,ioos:station:TCOON:003:1,2019-05-01T07:54:00Z,26.8015,-97.4706,0.0,10.3,138.0,12.9,'11111222,11111222,11111222' 
TCOON,ioos:station:TCOON:003:1,2019-05-01T08:00:00Z,26.8015,-97.4706,0.0,11.3,142.0,12.6,'11111222,11111222,11111222' 
TCOON,ioos:station:TCOON:003:1,2019-05-01T08:06:00Z,26.8015,-97.4706,0.0,10.6,141.0,12.8,'11111222,11111222,11111222' 
TCOON,ioos:station:TCOON:003:1,2019-05-01T08:12:00Z,26.8015,-97.4706,0.0,10.7,141.0,12.4,'11111222,11111222,11111222' 
TCOON,ioos:station:TCOON:003:1,2019-05-01T08:18:00Z,26.8015,-97.4706,0.0,11.3,139.0,13.0,'11111222,11111222,11111222' 
TCOON,ioos:station:TCOON:003:1,2019-05-01T08:24:00Z,26.8015,-97.4706,0.0,11.3,139.0,13.0,'11111222,11111222,11111222' 
TCOON,ioos:station:TCOON:003:1,2019-05-01T08:30:00Z,26.8015,-97.4706,0.0,10.3,140.0,13.5,'11111222,11111222,11111222' 
TCOON,ioos:station:TCOON:003:1,2019-05-01T08:36:00Z,26.8015,-97.4706,0.0,10.1,140.0,12.0,'11111222,11111222,11111222' 
TCOON,ioos:station:TCOON:003:1,2019-05-01T08:42:00Z,26.8015,-97.4706,0.0,11.0,142.0,12.4,'11111222,11111222,11111222' 
TCOON,ioos:station:TCOON:003:1,2019-05-01T08:48:00Z,26.8015,-97.4706,0.0,9.8,142.0,12.4,'11111222,11111222,11111222' 
TCOON,ioos:station:TCOON:003:1,2019-05-01T08:54:00Z,26.8015,-97.4706,0.0,11.0,140.0,13.2,'11111222,11111222,11111222' 
TCOON,ioos:station:TCOON:003:1,2019-05-01T09:00:00Z,26.8015,-97.4706,0.0,10.6,142.0,12.7,'11111222,11111222,11111222' 
TCOON,ioos:station:TCOON:003:1,2019-05-01T09:06:00Z,26.8015,-97.4706,0.0,10.2,140.0,11.8,'11111222,11111222,11111222' 
TCOON,ioos:station:TCOON:003:1,2019-05-01T09:12:00Z,26.8015,-97.4706,0.0,9.8,141.0,12.0,'11111222,11111222,11111222' 
TCOON,ioos:station:TCOON:003:1,2019-05-01T09:18:00Z,26.8015,-97.4706,0.0,10.7,143.0,12.5,'11111222,11111222,11111222' 
TCOON,ioos:station:TCOON:003:1,2019-05-01T09:24:00Z,26.8015,-97.4706,0.0,10.7,143.0,12.5,'11111222,11111222,11111222' 
TCOON,ioos:station:TCOON:003:1,2019-05-01T09:30:00Z,26.8015,-97.4706,0.0,9.9,142.0,12.5,'11111222,11111222,11111222' 
TCOON,ioos:station:TCOON:003:1,2019-05-01T09:36:00Z,26.8015,-97.4706,0.0,9.1,142.0,11.4,'11111222,11111222,11111222' 
TCOON,ioos:station:TCOON:003:1,2019-05-01T09:42:00Z,26.8015,-97.4706,0.0,9.7,143.0,11.7,'11111222,11111222,11111222' 
TCOON,ioos:station:TCOON:003:1,2019-05-01T09:48:00Z,26.8015,-97.4706,0.0,9.9,141.0,12.1,'11111222,11111222,11111222' 
TCOON,ioos:station:TCOON:003:1,2019-05-01T09:54:00Z,26.8015,-97.4706,0.0,9.8,144.0,11.4,'11111222,11111222,11111222' 
TCOON,ioos:station:TCOON:003:1,2019-05-01T10:00:00Z,26.8015,-97.4706,0.0,10.1,142.0,12.8,'11111222,11111222,11111222' 
TCOON,ioos:station:TCOON:003:1,2019-05-01T10:06:00Z,26.8015,-97.4706,0.0,9.9,142.0,12.3,'11111222,11111222,11111222' 
TCOON,ioos:station:TCOON:003:1,2019-05-01T10:12:00Z,26.8015,-97.4706,0.0,10.0,144.0,11.4,'11111222,11111222,11111222' 
TCOON,ioos:station:TCOON:003:1,2019-05-01T10:18:00Z,26.8015,-97.4706,0.0,10.7,140.0,12.8,'11111222,11111222,11111222' 
TCOON,ioos:station:TCOON:003:1,2019-05-01T10:24:00Z,26.8015,-97.4706,0.0,10.7,140.0,11.7,'11111222,11111222,11111222' 
TCOON,ioos:station:TCOON:003:1,2019-05-01T10:30:00Z,26.8015,-97.4706,0.0,10.4,141.0,13.1,'11111222,11111222,11111222' 
TCOON,ioos:station:TCOON:003:1,2019-05-01T10:36:00Z,26.8015,-97.4706,0.0,10.6,137.0,11.6,'11111222,11111222,11111222' 
TCOON,ioos:station:TCOON:003:1,2019-05-01T10:42:00Z,26.8015,-97.4706,0.0,10.1,140.0,12.7,'11111222,11111222,11111222' 
TCOON,ioos:station:TCOON:003:1,2019-05-01T10:48:00Z,26.8015,-97.4706,0.0,10.4,136.0,11.9,'11111222,11111222,11111222' 
TCOON,ioos:station:TCOON:003:1,2019-05-01T10:54:00Z,26.8015,-97.4706,0.0,9.8,136.0,12.9,'11111222,11111222,11111222' 
TCOON,ioos:station:TCOON:003:1,2019-05-01T11:00:00Z,26.8015,-97.4706,0.0,9.9,134.0,12.6,'11111222,11111222,11111222' 
TCOON,ioos:station:TCOON:003:1,2019-05-01T11:06:00Z,26.8015,-97.4706,0.0,10.7,135.0,12.6,'11111222,11111222,11111222' 
TCOON,ioos:station:TCOON:003:1,2019-05-01T11:12:00Z,26.8015,-97.4706,0.0,10.3,133.0,12.0,'11111222,11111222,11111222' 
TCOON,ioos:station:TCOON:003:1,2019-05-01T11:18:00Z,26.8015,-97.4706,0.0,10.4,136.0,12.7,'11111222,11111222,11111222' 
TCOON,ioos:station:TCOON:003:1,2019-05-01T11:24:00Z,26.8015,-97.4706,0.0,10.4,136.0,12.7,'11111222,11111222,11111222' 
TCOON,ioos:station:TCOON:003:1,2019-05-01T11:30:00Z,26.8015,-97.4706,0.0,10.1,135.0,13.1,'11111222,11111222,11111222' 
TCOON,ioos:station:TCOON:003:1,2019-05-01T11:36:00Z,26.8015,-97.4706,0.0,10.0,134.0,11.9,'11111222,11111222,11111222' 
TCOON,ioos:station:TCOON:003:1,2019-05-01T11:42:00Z,26.8015,-97.4706,0.0,10.8,138.0,12.4,'11111222,11111222,11111222' 
TCOON,ioos:station:TCOON:003:1,2019-05-01T11:48:00Z,26.8015,-97.4706,0.0,9.7,139.0,12.1,'11111222,11111222,11111222' 
TCOON,ioos:station:TCOON:003:1,2019-05-01T11:54:00Z,26.8015,-97.4706,0.0,10.9,137.0,12.2,'11111222,11111222,11111222' 
TCOON,ioos:station:TCOON:003:1,2019-05-01T12:00:00Z,26.8015,-97.4706,0.0,10.2,138.0,12.5,'11111222,11111222,11111222' 
TCOON,ioos:station:TCOON:003:1,2019-05-01T12:06:00Z,26.8015,-97.4706,0.0,10.6,137.0,12.7,'11111222,11111222,11111222' 
TCOON,ioos:station:TCOON:003:1,2019-05-01T12:12:00Z,26.8015,-97.4706,0.0,10.5,137.0,12.2,'11111222,11111222,11111222' 
TCOON,ioos:station:TCOON:003:1,2019-05-01T12:18:00Z,26.8015,-97.4706,0.0,9.6,138.0,11.3,'11111222,11111222,11111222' 
TCOON,ioos:station:TCOON:003:1,2019-05-01T12:24:00Z,26.8015,-97.4706,0.0,9.6,138.0,11.3,'11111222,11111222,11111222' 
TCOON,ioos:station:TCOON:003:1,2019-05-01T12:30:00Z,26.8015,-97.4706,0.0,9.5,139.0,11.2,'11111222,11111222,11111222' 
TCOON,ioos:station:TCOON:003:1,2019-05-01T12:36:00Z,26.8015,-97.4706,0.0,10.3,140.0,11.8,'11111222,11111222,11111222' 
TCOON,ioos:station:TCOON:003:1,2019-05-01T12:42:00Z,26.8015,-97.4706,0.0,10.0,143.0,11.6,'11111222,11111222,11111222' 
TCOON,ioos:station:TCOON:003:1,2019-05-01T12:48:00Z,26.8015,-97.4706,0.0,10.1,143.0,11.2,'11111222,11111222,11111222' 
TCOON,ioos:station:TCOON:003:1,2019-05-01T12:54:00Z,26.8015,-97.4706,0.0,10.2,142.0,12.2,'11111222,11111222,11111222' 
TCOON,ioos:station:TCOON:003:1,2019-05-01T13:00:00Z,26.8015,-97.4706,0.0,9.9,143.0,11.7,'11111222,11111222,11111222' 
TCOON,ioos:station:TCOON:003:1,2019-05-01T13:06:00Z,26.8015,-97.4706,0.0,10.9,145.0,12.8,'11111222,11111222,11111222' 
TCOON,ioos:station:TCOON:003:1,2019-05-01T13:12:00Z,26.8015,-97.4706,0.0,10.4,142.0,12.1,'11111222,11111222,11111222' 
TCOON,ioos:station:TCOON:003:1,2019-05-01T13:18:00Z,26.8015,-97.4706,0.0,10.7,142.0,12.3,'11111222,11111222,11111222' 
TCOON,ioos:station:TCOON:003:1,2019-05-01T13:24:00Z,26.8015,-97.4706,0.0,10.7,142.0,12.3,'11111222,11111222,11111222' 
TCOON,ioos:station:TCOON:003:1,2019-05-01T13:30:00Z,26.8015,-97.4706,0.0,10.4,140.0,12.7,'11111222,11111222,11111222' 
TCOON,ioos:station:TCOON:003:1,2019-05-01T13:36:00Z,26.8015,-97.4706,0.0,10.9,142.0,12.2,'11111222,11111222,11111222' 
TCOON,ioos:station:TCOON:003:1,2019-05-01T13:42:00Z,26.8015,-97.4706,0.0,10.2,140.0,12.7,'11111222,11111222,11111222' 
TCOON,ioos:station:TCOON:003:1,2019-05-01T13:48:00Z,26.8015,-97.4706,0.0,10.2,140.0,11.7,'11111222,11111222,11111222' 
TCOON,ioos:station:TCOON:003:1,2019-05-01T13:54:00Z,26.8015,-97.4706,0.0,9.7,140.0,11.4,'11111222,11111222,11111222' 
TCOON,ioos:station:TCOON:003:1,2019-05-01T14:00:00Z,26.8015,-97.4706,0.0,9.9,141.0,11.5,'11111222,11111222,11111222' 
TCOON,ioos:station:TCOON:003:1,2019-05-01T14:06:00Z,26.8015,-97.4706,0.0,11.5,143.0,13.4,'11111222,11111222,11111222' 
TCOON,ioos:station:TCOON:003:1,2019-05-01T14:12:00Z,26.8015,-97.4706,0.0,10.5,142.0,12.9,'11111222,11111222,11111222' 
TCOON,ioos:station:TCOON:003:1,2019-05-01T14:18:00Z,26.8015,-97.4706,0.0,10.0,146.0,12.5,'11111222,11111222,11111222' 
TCOON,ioos:station:TCOON:003:1,2019-05-01T14:24:00Z,26.8015,-97.4706,0.0,10.0,146.0,12.5,'11111222,11111222,11111222' 
TCOON,ioos:station:TCOON:003:1,2019-05-01T14:30:00Z,26.8015,-97.4706,0.0,10.5,142.0,12.7,'11111222,11111222,11111222' 
TCOON,ioos:station:TCOON:003:1,2019-05-01T14:36:00Z,26.8015,-97.4706,0.0,9.9,145.0,12.4,'11111222,11111222,11111222' 
TCOON,ioos:station:TCOON:003:1,2019-05-01T14:42:00Z,26.8015,-97.4706,0.0,10.5,144.0,13.7,'11111222,11111222,11111222' 
TCOON,ioos:station:TCOON:003:1,2019-05-01T14:48:00Z,26.8015,-97.4706,0.0,11.5,146.0,12.7,'11111222,11111222,11111222' 
TCOON,ioos:station:TCOON:003:1,2019-05-01T14:54:00Z,26.8015,-97.4706,0.0,11.7,146.0,13.0,'11111222,11111222,11111222' 
TCOON,ioos:station:TCOON:003:1,2019-05-01T15:00:00Z,26.8015,-97.4706,0.0,10.8,148.0,14.7,'11111222,11111222,11111222' 
TCOON,ioos:station:TCOON:003:1,2019-05-01T15:06:00Z,26.8015,-97.4706,0.0,11.5,145.0,13.5,'11111222,11111222,11111222' 
TCOON,ioos:station:TCOON:003:1,2019-05-01T15:12:00Z,26.8015,-97.4706,0.0,11.7,146.0,14.8,'11111222,11111222,11111222' 
TCOON,ioos:station:TCOON:003:1,2019-05-01T15:18:00Z,26.8015,-97.4706,0.0,11.6,147.0,13.6,'11111222,11111222,11111222' 
TCOON,ioos:station:TCOON:003:1,2019-05-01T15:24:00Z,26.8015,-97.4706,0.0,11.6,147.0,13.6,'11111222,11111222,11111222' 
TCOON,ioos:station:TCOON:003:1,2019-05-01T15:30:00Z,26.8015,-97.4706,0.0,11.8,144.0,14.2,'11111222,11111222,11111222' 
TCOON,ioos:station:TCOON:003:1,2019-05-01T15:36:00Z,26.8015,-97.4706,0.0,11.3,142.0,13.2,'11111222,11111222,11111222' 
TCOON,ioos:station:TCOON:003:1,2019-05-01T15:42:00Z,26.8015,-97.4706,0.0,10.9,144.0,12.4,'11111222,11111222,11111222' 
TCOON,ioos:station:TCOON:003:1,2019-05-01T15:48:00Z,26.8015,-97.4706,0.0,10.3,141.0,12.8,'11111222,11111222,11111222' 
TCOON,ioos:station:TCOON:003:1,2019-05-01T15:54:00Z,26.8015,-97.4706,0.0,10.8,143.0,12.8,'11111222,11111222,11111222' 
TCOON,ioos:station:TCOON:003:1,2019-05-01T16:00:00Z,26.8015,-97.4706,0.0,10.9,144.0,13.6,'11111222,11111222,11111222' 
TCOON,ioos:station:TCOON:003:1,2019-05-01T16:06:00Z,26.8015,-97.4706,0.0,11.0,143.0,13.3,'11111222,11111222,11111222' 
TCOON,ioos:station:TCOON:003:1,2019-05-01T16:12:00Z,26.8015,-97.4706,0.0,10.6,146.0,12.4,'11111222,11111222,11111222' 
TCOON,ioos:station:TCOON:003:1,2019-05-01T16:18:00Z,26.8015,-97.4706,0.0,9.8,144.0,12.3,'11111222,11111222,11111222' 
TCOON,ioos:station:TCOON:003:1,2019-05-01T16:24:00Z,26.8015,-97.4706,0.0,9.8,144.0,12.3,'11111222,11111222,11111222' 
TCOON,ioos:station:TCOON:003:1,2019-05-01T16:30:00Z,26.8015,-97.4706,0.0,11.4,145.0,13.6,'11111222,11111222,11111222' 
TCOON,ioos:station:TCOON:003:1,2019-05-01T16:36:00Z,26.8015,-97.4706,0.0,10.4,145.0,13.4,'11111222,11111222,11111222' 
TCOON,ioos:station:TCOON:003:1,2019-05-01T16:42:00Z,26.8015,-97.4706,0.0,11.0,146.0,13.6,'11111222,11111222,11111222' 
TCOON,ioos:station:TCOON:003:1,2019-05-01T16:48:00Z,26.8015,-97.4706,0.0,10.5,149.0,12.7,'11111222,11111222,11111222' 
TCOON,ioos:station:TCOON:003:1,2019-05-01T16:54:00Z,26.8015,-97.4706,0.0,11.0,153.0,12.4,'11111222,11111222,11111222' 
TCOON,ioos:station:TCOON:003:1,2019-05-01T17:00:00Z,26.8015,-97.4706,0.0,11.3,150.0,13.3,'11111222,11111222,11111222' 
TCOON,ioos:station:TCOON:003:1,2019-05-01T17:06:00Z,26.8015,-97.4706,0.0,10.3,153.0,14.4,'11111222,11111222,11111222' 
TCOON,ioos:station:TCOON:003:1,2019-05-01T17:12:00Z,26.8015,-97.4706,0.0,9.5,150.0,11.4,'11111222,11111222,11111222' 
TCOON,ioos:station:TCOON:003:1,2019-05-01T17:18:00Z,26.8015,-97.4706,0.0,10.7,150.0,12.3,'11111222,11111222,11111222' 
TCOON,ioos:station:TCOON:003:1,2019-05-01T17:24:00Z,26.8015,-97.4706,0.0,10.7,150.0,12.3,'11111222,11111222,11111222' 
TCOON,ioos:station:TCOON:003:1,2019-05-01T17:30:00Z,26.8015,-97.4706,0.0,9.9,150.0,12.1,'11111222,11111222,11111222' 
TCOON,ioos:station:TCOON:003:1,2019-05-01T17:36:00Z,26.8015,-97.4706,0.0,9.6,148.0,11.9,'11111222,11111222,11111222' 
TCOON,ioos:station:TCOON:003:1,2019-05-01T17:42:00Z,26.8015,-97.4706,0.0,10.2,145.0,12.3,'11111222,11111222,11111222' 
TCOON,ioos:station:TCOON:003:1,2019-05-01T17:48:00Z,26.8015,-97.4706,0.0,9.8,147.0,12.3,'11111222,11111222,11111222' 
TCOON,ioos:station:TCOON:003:1,2019-05-01T17:54:00Z,26.8015,-97.4706,0.0,10.2,145.0,12.1,'11111222,11111222,11111222' 
TCOON,ioos:station:TCOON:003:1,2019-05-01T18:00:00Z,26.8015,-97.4706,0.0,9.6,138.0,13.3,'11111222,11111222,11111222' 
TCOON,ioos:station:TCOON:003:1,2019-05-01T18:06:00Z,26.8015,-97.4706,0.0,11.2,148.0,12.4,'11111222,11111222,11111222' 
TCOON,ioos:station:TCOON:003:1,2019-05-01T18:12:00Z,26.8015,-97.4706,0.0,9.7,144.0,11.9,'11111222,11111222,11111222' 
TCOON,ioos:station:TCOON:003:1,2019-05-01T18:18:00Z,26.8015,-97.4706,0.0,10.6,142.0,12.2,'11111222,11111222,11111222' 
TCOON,ioos:station:TCOON:003:1,2019-05-01T18:24:00Z,26.8015,-97.4706,0.0,10.6,142.0,12.2,'11111222,11111222,11111222' 
TCOON,ioos:station:TCOON:003:1,2019-05-01T18:30:00Z,26.8015,-97.4706,0.0,10.8,137.0,13.3,'11111222,11111222,11111222' 
TCOON,ioos:station:TCOON:003:1,2019-05-01T18:36:00Z,26.8015,-97.4706,0.0,10.4,142.0,13.3,'11111222,11111222,11111222' 
TCOON,ioos:station:TCOON:003:1,2019-05-01T18:42:00Z,26.8015,-97.4706,0.0,10.8,144.0,13.3,'11111222,11111222,11111222' 
TCOON,ioos:station:TCOON:003:1,2019-05-01T18:48:00Z,26.8015,-97.4706,0.0,10.1,136.0,12.5,'11111222,11111222,11111222' 
TCOON,ioos:station:TCOON:003:1,2019-05-01T18:54:00Z,26.8015,-97.4706,0.0,10.3,138.0,12.8,'11111222,11111222,11111222' 
TCOON,ioos:station:TCOON:003:1,2019-05-01T19:00:00Z,26.8015,-97.4706,0.0,10.7,137.0,13.0,'11111222,11111222,11111222' 
TCOON,ioos:station:TCOON:003:1,2019-05-01T19:06:00Z,26.8015,-97.4706,0.0,11.4,136.0,14.3,'11111222,11111222,11111222' 
TCOON,ioos:station:TCOON:003:1,2019-05-01T19:12:00Z,26.8015,-97.4706,0.0,11.0,140.0,13.9,'11111222,11111222,11111222' 
TCOON,ioos:station:TCOON:003:1,2019-05-01T19:18:00Z,26.8015,-97.4706,0.0,10.3,138.0,13.1,'11111222,11111222,11111222' 
TCOON,ioos:station:TCOON:003:1,2019-05-01T19:24:00Z,26.8015,-97.4706,0.0,10.3,138.0,13.1,'11111222,11111222,11111222' 
TCOON,ioos:station:TCOON:003:1,2019-05-01T19:30:00Z,26.8015,-97.4706,0.0,11.0,135.0,12.5,'11111222,11111222,11111222' 
TCOON,ioos:station:TCOON:003:1,2019-05-01T19:36:00Z,26.8015,-97.4706,0.0,10.8,141.0,12.9,'11111222,11111222,11111222' 
TCOON,ioos:station:TCOON:003:1,2019-05-01T19:42:00Z,26.8015,-97.4706,0.0,11.1,136.0,12.9,'11111222,11111222,11111222' 
TCOON,ioos:station:TCOON:003:1,2019-05-01T19:48:00Z,26.8015,-97.4706,0.0,11.3,138.0,13.8,'11111222,11111222,11111222' 
TCOON,ioos:station:TCOON:003:1,2019-05-01T19:54:00Z,26.8015,-97.4706,0.0,10.3,144.0,13.3,'11111222,11111222,11111222' 
TCOON,ioos:station:TCOON:003:1,2019-05-01T20:00:00Z,26.8015,-97.4706,0.0,11.5,143.0,13.4,'11111222,11111222,11111222' 